User: anonymous   Login
Location: Bethera
(33.2010°N, 79.7880°W)
Time: 13:21:53
(UTC-04:00)
Language:

Cosmos 1833 Rocket - Orbit

View from above orbital plane
View from above orbital plane
View from above satellite
View from above satellite

Ground track
Ground track

The orbit data is extracted from the following two-line orbital elements,

1 17590U 87027B   15088.35497873  .00000014  00000-0  30821-4 0  9997
2 17590 071.0032 057.3122 0002750 108.9908 251.1514 14.16687336449287
Epoch (UTC): 29 March 2015 08:31:10
Eccentricity: 0.0002750
inclination: 71.0032°
perigee height: 834 km
apogee height: 838 km
right ascension of ascending node: 57.3122°
argument of perigee: 108.9908°
revolutions per day: 14.16687336
mean anomaly at epoch: 251.1514°
orbit number at epoch: 44928

The dashed part of the orbit path shows where the satellite is in the earth's shadow,  

DLR